Rifle, CO

9:13 AM MST on December 12, 2017 (GMT -0700)
Garfield County Regional

Weather History for KRIL - July, 2013

Change the Weather History Date:

Monday, July 29, 2013

  Actual Average Record
Temperature  
Mean Temperature 72 °F 73 °F  
Max Temperature 85 °F 91 °F 101 °F (1934)
Min Temperature 58 °F 56 °F 44 °F (1958)
Degree Days  
Heating Degree Days 0 0  
Month to date heating degree days 0 0  
Since 1 June heating degree days 13 59  
Since 1 July heating degree days 0 0  
Cooling Degree Days 7 8  
Month to date cooling degree days 326 220  
Year to date cooling degree days 484 322  
Since 1 June cooling degree days 477 315  
Growing Degree Days 20 (Base 50)    
Moisture  
Dew Point 51 °F    
Average Humidity 55    
Maximum Humidity 84    
Minimum Humidity 25    
Precipitation  
Precipitation 0.01 in 0.06 in 1.40 in (1989)
Month to date precipitation 0.77 1.02  
Year to date precipitation 4.76 7.46  
Sea Level Pressure  
Sea Level Pressure 29.99 in    
Wind  
Wind Speed 9 mph (West)    
Max Wind Speed 26 mph    
Max Gust Speed 37 mph    
Visibility 10 miles    
Events Rain , Thunderstorm    
T = Trace of Precipitation, MM = Missing Value Source: NWS Daily Summary

Daily Weather History Graph

Daily Weather History Graph

Search for Another Location

Airport or City:

Trip Planner

Search our weather history database for the weather conditions in past years. The results will help you decide how hot, cold, wet, or windy it might be!

Date:

Astronomy

Jul. 29, 2013 Rise Set
Actual Time 6:07 AM MDT 8:26 PM MDT
Civil Twilight 5:37 AM MDT 8:56 PM MDT
Nautical Twilight 5:00 AM MDT 9:33 PM MDT
Astronomical Twilight 4:19 AM MDT 10:14 PM MDT
Moon No Moon Rise 1:50 PM MDT (7/29)
Length of Visible Light 15h 18m
Length of Day
14h 18m
Waning Gibbous, 50% of the Moon is Illuminated
Jul 29
Waning Gibbous
Aug 6
New
Aug 14
First Quarter
Aug 20
Full
Aug 28
Last Quarter

Hourly Weather History & Observations

Time (MDT) Temp. Dew Point Humidity Pressure Visibility Wind Dir Wind Speed Gust Speed Precip Events Conditions
12:53 AM 63.0 °F 55.9 °F 78% 29.93 in 10.0 mi Calm Calm - N/A   Scattered Clouds
1:53 AM 63.0 °F 55.9 °F 78% 29.93 in 10.0 mi NW 4.6 mph - N/A   Mostly Cloudy
2:53 AM 63.0 °F 55.0 °F 75% 29.94 in 10.0 mi WSW 5.8 mph - 0.00 in   Mostly Cloudy
3:53 AM 61.0 °F 54.0 °F 78% 29.93 in 10.0 mi West 13.8 mph - N/A   Overcast
4:53 AM 60.1 °F 55.9 °F 86% 29.93 in 10.0 mi ENE 6.9 mph - 0.00 in Rain Light Rain
5:53 AM 57.9 °F 55.0 °F 90% 29.95 in 10.0 mi NW 4.6 mph - 0.01 in Rain Light Rain
6:53 AM 60.1 °F 55.0 °F 83% 29.97 in 10.0 mi SW 3.5 mph - 0.00 in   Overcast
7:53 AM 61.0 °F 55.9 °F 83% 30.00 in 10.0 mi West 4.6 mph - N/A   Overcast
8:53 AM 63.0 °F 55.0 °F 75% 30.01 in 10.0 mi Calm Calm - N/A   Mostly Cloudy
9:53 AM 66.0 °F 55.0 °F 68% 30.01 in 10.0 mi Calm Calm - N/A   Mostly Cloudy
10:53 AM 69.1 °F 54.0 °F 58% 30.01 in 10.0 mi Variable 3.5 mph - N/A   Clear
11:53 AM 72.0 °F 50.0 °F 46% 29.99 in 10.0 mi Variable 3.5 mph - N/A   Clear
12:53 PM 77.0 °F 52.0 °F 42% 29.97 in 10.0 mi West 11.5 mph 18.4 mph N/A   Clear
1:53 PM 80.1 °F 50.0 °F 35% 29.94 in 10.0 mi West 21.9 mph 29.9 mph N/A   Clear
2:00 PM 78.8 °F 50.0 °F 36% 30.15 in 10.0 mi West 17.3 mph 29.9 mph N/A Thunderstorm Partly Cloudy
2:38 PM 80.6 °F 48.2 °F 32% 30.14 in 10.0 mi West 18.4 mph 26.5 mph N/A   Clear
2:53 PM 81.0 °F 46.9 °F 30% 29.93 in 10.0 mi WSW 18.4 mph 25.3 mph N/A   Clear
3:05 PM 80.6 °F 48.2 °F 32% 30.14 in 10.0 mi West 12.7 mph 19.6 mph N/A Thunderstorm Thunderstorm
3:38 PM 78.8 °F 48.2 °F 34% 30.13 in 10.0 mi SE 19.6 mph - N/A   Scattered Clouds
3:53 PM 80.1 °F 48.0 °F 32% 29.93 in 10.0 mi Variable 4.6 mph 18.4 mph N/A   Scattered Clouds
4:53 PM 84.0 °F 45.0 °F 25% 29.90 in 10.0 mi West 16.1 mph 21.9 mph N/A   Mostly Cloudy
5:53 PM 82.0 °F 46.0 °F 28% 29.92 in 10.0 mi West 20.7 mph 27.6 mph N/A   Clear
6:53 PM 79.0 °F 48.0 °F 34% 29.94 in 10.0 mi West 18.4 mph 26.5 mph N/A   Clear
7:53 PM 77.0 °F 50.0 °F 39% 29.94 in 10.0 mi West 19.6 mph 31.1 mph N/A   Clear
8:53 PM 75.0 °F 51.1 °F 43% 29.98 in 10.0 mi West 3.5 mph - N/A   Scattered Clouds
9:53 PM 72.0 °F 52.0 °F 49% 30.01 in 10.0 mi East 4.6 mph - N/A   Clear
10:53 PM 69.1 °F 50.0 °F 51% 30.04 in 10.0 mi South 6.9 mph - N/A   Clear
11:53 PM 69.1 °F 44.1 °F 40% 30.05 in 10.0 mi SW 10.4 mph - N/A   Scattered Clouds